Munising, MI

2:13 PM EDT on July 23, 2017 (GMT -0400)
Munising

Weather History for KP53 - January, 2013

Change the Weather History Date:

Monday, January 28, 2013

  Actual Average (KISQ) Record (KISQ)
Temperature  
Mean Temperature 31 °F -  
Max Temperature 34 °F 25 °F 46 °F (1989)
Min Temperature 28 °F 7 °F -16 °F (1966)
Degree Days  
Heating Degree Days 34    
Moisture  
Dew Point 27 °F    
Average Humidity 84    
Maximum Humidity 89    
Minimum Humidity 79    
Precipitation  
Precipitation 0.25 in - - ()
Sea Level Pressure  
Sea Level Pressure 29.91 in    
Wind  
Wind Speed 3 mph (SSE)    
Max Wind Speed 8 mph    
Max Gust Speed -    
Averages and records for this station are not official NWS values.
T = Trace of Precipitation, MM = Missing Value Source: NWS Daily Summary

Daily Weather History Graph

Daily Weather History Graph

Search for Another Location

Airport or City:

Trip Planner

Search our weather history database for the weather conditions in past years. The results will help you decide how hot, cold, wet, or windy it might be!

Date:

Astronomy

Jan. 28, 2013 Rise Set
Actual Time 8:14 AM EST 5:45 PM EST
Civil Twilight 7:41 AM EST 6:18 PM EST
Nautical Twilight 7:05 AM EST 6:54 PM EST
Astronomical Twilight 6:30 AM EST 7:29 PM EST
Moon 7:49 PM EST (1/28) 8:31 AM EST (1/28)
Length of Visible Light 10h 36m
Length of Day
9h 31m
Full, 98% of the Moon is Illuminated
Jan 28
Full
Feb 3
Last Quarter
Feb 10
New
Feb 17
First Quarter
Feb 25
Full

Hourly Weather History & Observations

Time (EST) Temp. Windchill Dew Point Humidity Pressure Visibility Wind Dir Wind Speed Gust Speed Precip Events Conditions
12:56 AM 32.0 °F 26.4 °F 28.0 °F 85% 29.98 in - SSE 5.8 mph - 0.02 in   Unknown
1:56 AM 30.9 °F 26.2 °F 27.0 °F 85% 29.95 in - SSE 4.6 mph - 0.03 in   Unknown
2:56 AM 30.0 °F - 26.1 °F 85% 29.93 in - Calm Calm - 0.03 in   Unknown
3:56 AM 28.9 °F 23.9 °F 25.0 °F 85% 29.91 in - Variable 4.6 mph - 0.02 in   Unknown
4:56 AM 28.9 °F 23.9 °F 25.0 °F 85% 29.88 in - Variable 4.6 mph - 0.05 in   Unknown
5:56 AM 28.9 °F 21.9 °F 24.1 °F 82% 29.86 in - SSE 6.9 mph - 0.04 in   Unknown
6:56 AM 28.9 °F - 24.1 °F 82% 29.86 in - Calm Calm - 0.01 in   Unknown
7:56 AM 28.9 °F - 25.0 °F 85% 29.85 in - Calm Calm - 0.02 in   Unknown
8:56 AM 28.9 °F - 25.0 °F 85% 29.85 in - Calm Calm - 0.02 in   Unknown
9:56 AM 28.9 °F - 25.0 °F 85% 29.86 in - Calm Calm - 0.01 in   Unknown
10:56 AM 30.0 °F - 25.0 °F 82% 29.88 in - Calm Calm - N/A   Unknown
11:56 AM 30.9 °F - 26.1 °F 82% 29.90 in - Calm Calm - N/A   Unknown
12:56 PM 30.9 °F 26.2 °F 27.0 °F 85% 29.88 in - NNW 4.6 mph - N/A   Unknown
1:56 PM 32.0 °F 24.8 °F 27.0 °F 82% 29.86 in - NW 8.1 mph - N/A   Unknown
2:56 PM 34.0 °F - 28.9 °F 82% 29.88 in - Calm Calm - N/A   Unknown
3:56 PM 34.0 °F 31.0 °F 28.0 °F 79% 29.91 in - North 3.5 mph - N/A   Unknown
4:56 PM 33.1 °F - 28.0 °F 82% 29.92 in - Calm Calm - N/A   Unknown
5:56 PM 33.1 °F - 28.0 °F 82% 29.94 in - Calm Calm - N/A   Unknown
6:56 PM 32.0 °F - 28.0 °F 85% 29.96 in - Calm Calm - N/A   Unknown
7:56 PM 30.9 °F - 28.0 °F 89% 29.96 in - Calm Calm - N/A   Unknown
8:56 PM 32.0 °F - 28.0 °F 85% 29.96 in - Calm Calm - N/A   Unknown
9:56 PM 32.0 °F - 28.0 °F 85% 29.95 in - Calm Calm - N/A   Unknown
10:56 PM 32.0 °F 25.6 °F 28.0 °F 85% 29.93 in - South 6.9 mph - N/A   Unknown
11:56 PM 32.0 °F 26.4 °F 27.0 °F 82% 29.91 in - South 5.8 mph - N/A   Unknown